Time,TemperatureF,DewpointF,PressureIn,WindDirection,WindDirectionDegrees,WindSpeedMPH,WindSpeedGustMPH,Humidity,HourlyPrecipIn,Conditions,Clouds,dailyrainin,SoftwareType,DateUTC
2013-04-17 00:02:00,74.7,68.7,29.83,SSW,193,7.0,19.0,82,0.00,,,0.00,meteohub,2013-04-17 05:02:00,
2013-04-17 00:07:00,74.5,68.5,29.83,South,178,11.0,19.0,82,0.00,,,0.00,meteohub,2013-04-17 05:07:00,
2013-04-17 00:12:00,74.5,68.9,29.83,South,187,10.0,19.0,83,0.00,,,0.00,meteohub,2013-04-17 05:12:00,
2013-04-17 00:17:00,74.7,68.7,29.82,SSE,155,8.0,19.0,82,0.00,,,0.00,meteohub,2013-04-17 05:17:00,
2013-04-17 00:22:00,74.5,68.5,29.83,SSW,202,5.0,22.0,82,0.00,,,0.00,meteohub,2013-04-17 05:22:00,
2013-04-17 00:27:00,74.5,68.9,29.83,SSE,164,7.0,22.0,83,0.00,,,0.00,meteohub,2013-04-17 05:27:00,
2013-04-17 00:32:00,74.5,68.9,29.83,South,174,8.0,22.0,83,0.00,,,0.00,meteohub,2013-04-17 05:32:00,
2013-04-17 00:37:00,74.5,68.9,29.83,SSW,198,10.0,22.0,83,0.00,,,0.00,meteohub,2013-04-17 05:37:00,
2013-04-17 00:42:00,74.5,68.9,29.83,South,191,8.0,22.0,83,0.00,,,0.00,meteohub,2013-04-17 05:42:00,
2013-04-17 00:48:00,74.5,68.9,29.83,SSE,168,11.0,22.0,83,0.00,,,0.00,meteohub,2013-04-17 05:48:00,
2013-04-17 00:53:00,74.5,68.9,29.83,South,178,15.0,18.0,83,0.00,,,0.00,meteohub,2013-04-17 05:53:00,
2013-04-17 00:58:00,74.5,68.9,29.83,SSE,166,15.0,18.0,83,0.00,,,0.00,meteohub,2013-04-17 05:58:00,
2013-04-17 01:04:00,74.5,68.9,29.83,South,184,9.0,18.0,83,0.00,,,0.00,meteohub,2013-04-17 06:04:00,
2013-04-17 01:09:00,74.5,68.9,29.83,SE,135,3.0,18.0,83,0.00,,,0.00,meteohub,2013-04-17 06:09:00,
2013-04-17 01:14:00,74.3,68.7,29.83,South,171,8.0,18.0,83,0.00,,,0.00,meteohub,2013-04-17 06:14:00,
2013-04-17 01:20:00,74.1,68.9,29.83,South,183,4.0,18.0,84,0.00,,,0.00,meteohub,2013-04-17 06:20:00,
2013-04-17 01:25:00,73.9,68.7,29.83,SSW,198,7.0,16.0,84,0.00,,,0.00,meteohub,2013-04-17 06:25:00,
2013-04-17 01:30:00,73.9,69.1,29.83,SSE,155,9.0,16.0,85,0.00,,,0.00,meteohub,2013-04-17 06:30:00,
2013-04-17 01:35:00,73.8,68.9,29.83,South,181,5.0,16.0,85,0.00,,,0.00,meteohub,2013-04-17 06:35:00,
2013-04-17 01:40:00,73.8,68.9,29.83,South,183,6.0,16.0,85,0.00,,,0.00,meteohub,2013-04-17 06:40:00,
2013-04-17 01:46:00,73.9,69.1,29.83,South,187,4.0,16.0,85,0.00,,,0.00,meteohub,2013-04-17 06:46:00,
2013-04-17 01:52:00,73.9,69.1,29.83,SSE,167,5.0,16.0,85,0.00,,,0.00,meteohub,2013-04-17 06:52:00,
2013-04-17 01:57:00,73.9,69.1,29.83,South,175,4.0,16.0,85,0.00,,,0.00,meteohub,2013-04-17 06:57:00,
2013-04-17 02:02:00,73.8,68.9,29.83,SSW,198,7.0,12.0,85,0.00,,,0.00,meteohub,2013-04-17 07:02:00,
2013-04-17 02:07:00,73.8,68.9,29.82,SSE,155,4.0,12.0,85,0.00,,,0.00,meteohub,2013-04-17 07:07:00,
2013-04-17 02:12:00,73.8,69.3,29.83,South,185,5.0,12.0,86,0.00,,,0.00,meteohub,2013-04-17 07:12:00,
2013-04-17 02:17:00,73.8,69.3,29.82,SSE,165,3.0,12.0,86,0.00,,,0.00,meteohub,2013-04-17 07:17:00,
2013-04-17 02:22:00,73.8,69.3,29.82,South,174,6.0,9.0,86,0.00,,,0.00,meteohub,2013-04-17 07:22:00,
2013-04-17 02:27:00,73.8,69.3,29.81,South,188,3.0,9.0,86,0.00,,,0.00,meteohub,2013-04-17 07:27:00,
2013-04-17 02:32:00,73.6,69.1,29.82,SSE,163,4.0,9.0,86,0.00,,,0.00,meteohub,2013-04-17 07:32:00,
2013-04-17 02:38:00,73.6,69.1,29.82,SSE,157,4.0,9.0,86,0.00,,,0.00,meteohub,2013-04-17 07:38:00,
2013-04-17 02:43:00,73.6,69.4,29.82,SSE,157,8.0,9.0,87,0.00,,,0.00,meteohub,2013-04-17 07:43:00,
2013-04-17 02:48:00,73.6,69.4,29.82,South,171,7.0,9.0,87,0.00,,,0.00,meteohub,2013-04-17 07:48:00,
2013-04-17 02:53:00,73.6,69.4,29.82,SSE,156,4.0,9.0,87,0.00,,,0.00,meteohub,2013-04-17 07:53:00,
2013-04-17 02:59:00,73.8,69.6,29.82,SSE,164,5.0,9.0,87,0.00,,,0.00,meteohub,2013-04-17 07:59:00,
2013-04-17 03:04:00,73.8,69.6,29.81,SSE,162,4.0,9.0,87,0.00,,,0.00,meteohub,2013-04-17 08:04:00,
2013-04-17 03:09:00,73.9,70.2,29.81,SSW,199,3.0,9.0,88,0.00,,,0.00,meteohub,2013-04-17 08:09:00,
2013-04-17 03:15:00,73.9,70.2,29.81,SSE,159,4.0,11.0,88,0.00,,,0.00,meteohub,2013-04-17 08:15:00,
2013-04-17 03:20:00,73.9,70.2,29.81,South,184,7.0,11.0,88,0.00,,,0.00,meteohub,2013-04-17 08:20:00,
2013-04-17 03:25:00,74.1,70.3,29.81,South,180,4.0,11.0,88,0.00,,,0.00,meteohub,2013-04-17 08:25:00,
2013-04-17 03:31:00,73.9,70.5,29.81,South,184,5.0,11.0,89,0.00,,,0.00,meteohub,2013-04-17 08:31:00,
2013-04-17 03:36:00,73.9,70.5,29.81,SSE,161,6.0,13.0,89,0.00,,,0.00,meteohub,2013-04-17 08:36:00,
2013-04-17 03:41:00,73.9,70.5,29.81,South,180,10.0,13.0,89,0.00,,,0.00,meteohub,2013-04-17 08:41:00,
2013-04-17 03:47:00,73.9,70.5,29.81,SSE,165,8.0,13.0,89,0.00,,,0.00,meteohub,2013-04-17 08:47:00,
2013-04-17 03:52:00,73.9,70.9,29.81,SSE,161,4.0,14.0,90,0.00,,,0.00,meteohub,2013-04-17 08:52:00,
2013-04-17 03:57:00,73.9,70.9,29.81,South,176,8.0,14.0,90,0.00,,,0.00,meteohub,2013-04-17 08:57:00,
2013-04-17 04:02:00,73.9,71.1,29.81,South,176,7.0,14.0,91,0.00,,,0.00,meteohub,2013-04-17 09:02:00,
2013-04-17 04:07:00,73.9,71.1,29.81,SSE,155,7.0,14.0,91,0.00,,,0.00,meteohub,2013-04-17 09:07:00,
2013-04-17 04:12:00,73.9,71.1,29.81,SSE,166,10.0,14.0,91,0.00,,,0.00,meteohub,2013-04-17 09:12:00,
2013-04-17 04:17:00,73.9,71.1,29.81,SSW,195,5.0,19.0,91,0.00,,,0.00,meteohub,2013-04-17 09:17:00,
2013-04-17 04:22:00,73.9,71.1,29.81,SE,137,7.0,19.0,91,0.00,,,0.00,meteohub,2013-04-17 09:22:00,
2013-04-17 04:27:00,73.9,71.1,29.81,SSW,193,7.0,19.0,91,0.00,,,0.00,meteohub,2013-04-17 09:27:00,
2013-04-17 04:32:00,74.1,71.2,29.81,South,169,4.0,19.0,91,0.00,,,0.00,meteohub,2013-04-17 09:32:00,
2013-04-17 04:37:00,74.1,71.1,29.81,SE,136,4.0,19.0,90,0.00,,,0.00,meteohub,2013-04-17 09:37:00,
2013-04-17 04:43:00,74.1,71.1,29.81,SSW,198,9.0,12.0,90,0.00,,,0.00,meteohub,2013-04-17 09:43:00,
2013-04-17 04:48:00,74.1,71.1,29.81,SSE,159,2.0,12.0,90,0.00,,,0.00,meteohub,2013-04-17 09:48:00,
2013-04-17 04:53:00,74.1,71.1,29.81,South,169,6.0,12.0,90,0.00,,,0.00,meteohub,2013-04-17 09:53:00,
2013-04-17 04:58:00,73.9,70.9,29.81,South,173,11.0,12.0,90,0.00,,,0.00,meteohub,2013-04-17 09:58:00,
2013-04-17 05:04:00,74.1,71.1,29.81,South,179,6.0,12.0,90,0.00,,,0.00,meteohub,2013-04-17 10:04:00,
2013-04-17 05:09:00,74.1,71.1,29.81,South,184,4.0,12.0,90,0.00,,,0.00,meteohub,2013-04-17 10:09:00,
2013-04-17 05:15:00,74.1,71.1,29.81,SSE,168,6.0,11.0,90,0.00,,,0.00,meteohub,2013-04-17 10:15:00,
2013-04-17 05:20:00,74.1,70.7,29.81,South,178,4.0,11.0,89,0.00,,,0.00,meteohub,2013-04-17 10:20:00,
2013-04-17 05:25:00,74.1,71.1,29.81,SSE,159,7.0,11.0,90,0.00,,,0.00,meteohub,2013-04-17 10:25:00,
2013-04-17 05:31:00,74.1,70.7,29.80,ESE,119,3.0,11.0,89,0.00,,,0.00,meteohub,2013-04-17 10:31:00,
2013-04-17 05:36:00,73.9,70.5,29.81,South,169,5.0,11.0,89,0.00,,,0.00,meteohub,2013-04-17 10:36:00,
2013-04-17 05:42:00,73.9,70.5,29.81,South,186,4.0,11.0,89,0.00,,,0.00,meteohub,2013-04-17 10:42:00,
2013-04-17 05:47:00,73.9,70.5,29.81,South,180,3.0,13.0,89,0.00,,,0.00,meteohub,2013-04-17 10:47:00,
2013-04-17 05:52:00,73.9,70.5,29.81,SSE,164,9.0,13.0,89,0.00,,,0.00,meteohub,2013-04-17 10:52:00,
2013-04-17 05:57:00,73.9,70.5,29.81,South,178,7.0,13.0,89,0.00,,,0.00,meteohub,2013-04-17 10:57:00,
2013-04-17 06:03:00,74.1,70.7,29.81,South,188,6.0,13.0,89,0.00,,,0.00,meteohub,2013-04-17 11:03:00,
2013-04-17 06:08:00,74.1,70.3,29.81,SSE,166,9.0,13.0,88,0.00,,,0.00,meteohub,2013-04-17 11:08:00,
2013-04-17 06:13:00,74.1,70.3,29.81,SE,144,5.0,13.0,88,0.00,,,0.00,meteohub,2013-04-17 11:13:00,
2013-04-17 06:19:00,74.1,70.3,29.81,SSE,159,3.0,13.0,88,0.00,,,0.00,meteohub,2013-04-17 11:19:00,
2013-04-17 06:24:00,73.9,70.2,29.81,SE,138,8.0,13.0,88,0.00,,,0.00,meteohub,2013-04-17 11:24:00,
2013-04-17 06:29:00,73.9,70.2,29.81,South,169,5.0,13.0,88,0.00,,,0.00,meteohub,2013-04-17 11:29:00,
2013-04-17 06:35:00,73.9,70.2,29.81,South,191,8.0,15.0,88,0.00,,,0.00,meteohub,2013-04-17 11:35:00,
2013-04-17 06:40:00,73.9,70.2,29.80,South,179,3.0,15.0,88,0.00,,,0.00,meteohub,2013-04-17 11:40:00,
2013-04-17 06:45:00,73.9,70.2,29.81,SE,142,11.0,15.0,88,0.00,,,0.00,meteohub,2013-04-17 11:45:00,
2013-04-17 06:51:00,73.8,70.0,29.81,South,169,6.0,15.0,88,0.00,,,0.00,meteohub,2013-04-17 11:51:00,
2013-04-17 06:56:00,73.8,70.0,29.80,SSW,196,6.0,15.0,88,0.00,,,0.00,meteohub,2013-04-17 11:56:00,
2013-04-17 07:02:00,73.6,69.8,29.81,SE,142,9.0,15.0,88,0.00,,,0.00,meteohub,2013-04-17 12:02:00,
2013-04-17 07:07:00,73.6,69.8,29.81,South,186,10.0,15.0,88,0.00,,,0.00,meteohub,2013-04-17 12:07:00,
2013-04-17 07:12:00,73.6,69.8,29.81,SSE,158,12.0,15.0,88,0.00,,,0.00,meteohub,2013-04-17 12:12:00,
2013-04-17 07:17:00,73.6,69.8,29.82,SSE,162,7.0,15.0,88,0.00,,,0.00,meteohub,2013-04-17 12:17:00,
2013-04-17 07:22:00,73.8,69.6,29.82,South,188,8.0,15.0,87,0.00,,,0.00,meteohub,2013-04-17 12:22:00,
2013-04-17 07:27:00,73.8,69.6,29.82,SSE,166,12.0,15.0,87,0.00,,,0.00,meteohub,2013-04-17 12:27:00,
2013-04-17 07:32:00,73.9,69.8,29.82,South,181,8.0,15.0,87,0.00,,,0.00,meteohub,2013-04-17 12:32:00,
2013-04-17 07:37:00,73.9,69.8,29.82,SSE,165,9.0,15.0,87,0.00,,,0.00,meteohub,2013-04-17 12:37:00,
2013-04-17 07:43:00,73.9,69.8,29.82,SSE,150,6.0,15.0,87,0.00,,,0.00,meteohub,2013-04-17 12:43:00,
2013-04-17 07:48:00,73.9,69.8,29.82,SW,219,13.0,15.0,87,0.00,,,0.00,meteohub,2013-04-17 12:48:00,
2013-04-17 07:53:00,73.9,69.8,29.82,South,174,7.0,15.0,87,0.00,,,0.00,meteohub,2013-04-17 12:53:00,
2013-04-17 07:59:00,73.9,69.8,29.82,SSE,168,10.0,15.0,87,0.00,,,0.00,meteohub,2013-04-17 12:59:00,
2013-04-17 08:04:00,73.9,69.8,29.82,SSE,161,9.0,19.0,87,0.00,,,0.00,meteohub,2013-04-17 13:04:00,
2013-04-17 08:10:00,73.9,69.8,29.82,SSW,209,12.0,19.0,87,0.00,,,0.00,meteohub,2013-04-17 13:10:00,
2013-04-17 08:15:00,73.9,69.8,29.83,South,178,8.0,19.0,87,0.00,,,0.00,meteohub,2013-04-17 13:15:00,
2013-04-17 08:20:00,73.9,69.8,29.82,South,178,10.0,19.0,87,0.00,,,0.00,meteohub,2013-04-17 13:20:00,
2013-04-17 08:25:00,73.9,69.8,29.82,SSE,167,7.0,19.0,87,0.00,,,0.00,meteohub,2013-04-17 13:25:00,
2013-04-17 08:30:00,73.9,69.8,29.82,South,178,10.0,19.0,87,0.00,,,0.00,meteohub,2013-04-17 13:30:00,
2013-04-17 08:35:00,74.1,70.0,29.82,SSW,195,5.0,19.0,87,0.00,,,0.00,meteohub,2013-04-17 13:35:00,
2013-04-17 08:40:00,74.1,70.0,29.82,SSW,197,7.0,19.0,87,0.00,,,0.00,meteohub,2013-04-17 13:40:00,
2013-04-17 08:45:00,73.9,69.8,29.82,South,182,7.0,18.0,87,0.00,,,0.00,meteohub,2013-04-17 13:45:00,
2013-04-17 08:50:00,74.1,70.0,29.82,South,189,8.0,18.0,87,0.00,,,0.00,meteohub,2013-04-17 13:50:00,
2013-04-17 08:56:00,74.1,70.0,29.82,SSE,155,11.0,18.0,87,0.00,,,0.00,meteohub,2013-04-17 13:56:00,
2013-04-17 09:01:00,74.1,70.0,29.82,South,183,9.0,18.0,87,0.00,,,0.00,meteohub,2013-04-17 14:01:00,
2013-04-17 09:06:00,74.1,70.0,29.82,South,172,5.0,18.0,87,0.00,,,0.00,meteohub,2013-04-17 14:06:00,
2013-04-17 09:12:00,74.5,70.0,29.81,South,184,12.0,18.0,86,0.00,,,0.00,meteohub,2013-04-17 14:12:00,
2013-04-17 09:17:00,74.8,70.3,29.81,SSE,163,7.0,18.0,86,0.00,,,0.00,meteohub,2013-04-17 14:17:00,
2013-04-17 09:22:00,74.7,69.8,29.81,South,173,4.0,18.0,85,0.00,,,0.00,meteohub,2013-04-17 14:22:00,
2013-04-17 09:27:00,74.7,70.2,29.81,South,174,9.0,15.0,86,0.00,,,0.00,meteohub,2013-04-17 14:27:00,
2013-04-17 09:32:00,74.8,70.3,29.81,SSE,162,8.0,15.0,86,0.00,,,0.00,meteohub,2013-04-17 14:32:00,
2013-04-17 09:38:00,74.7,69.8,29.81,SSW,209,5.0,15.0,85,0.00,,,0.00,meteohub,2013-04-17 14:38:00,
2013-04-17 09:43:00,74.7,69.8,29.81,South,171,11.0,15.0,85,0.00,,,0.00,meteohub,2013-04-17 14:43:00,
2013-04-17 09:49:00,74.8,70.0,29.81,South,179,8.0,15.0,85,0.00,,,0.00,meteohub,2013-04-17 14:49:00,
2013-04-17 09:54:00,74.8,70.0,29.81,SSE,161,6.0,15.0,85,0.00,,,0.00,meteohub,2013-04-17 14:54:00,
2013-04-17 09:59:00,75.0,69.8,29.81,SE,133,9.0,15.0,84,0.00,,,0.00,meteohub,2013-04-17 14:59:00,
2013-04-17 10:04:00,75.6,70.3,29.81,SSW,204,6.0,17.0,84,0.00,,,0.00,meteohub,2013-04-17 15:04:00,
2013-04-17 10:09:00,75.7,70.2,29.81,SSE,164,17.0,17.0,83,0.00,,,0.00,meteohub,2013-04-17 15:09:00,
2013-04-17 10:15:00,75.7,70.2,29.80,SSE,159,10.0,17.0,83,0.00,,,0.00,meteohub,2013-04-17 15:15:00,
2013-04-17 10:20:00,75.7,69.8,29.80,SSE,150,6.0,17.0,82,0.00,,,0.00,meteohub,2013-04-17 15:20:00,
2013-04-17 10:25:00,75.9,70.0,29.80,SSE,159,6.0,17.0,82,0.00,,,0.00,meteohub,2013-04-17 15:25:00,
2013-04-17 10:31:00,76.1,69.8,29.81,SSE,158,16.0,17.0,81,0.00,,,0.00,meteohub,2013-04-17 15:31:00,
2013-04-17 10:36:00,76.3,70.0,29.80,SSW,205,3.0,17.0,81,0.00,,,0.00,meteohub,2013-04-17 15:36:00,
2013-04-17 10:42:00,76.6,70.3,29.80,South,174,15.0,18.0,81,0.00,,,0.00,meteohub,2013-04-17 15:42:00,
2013-04-17 10:47:00,76.6,70.0,29.80,South,188,16.0,18.0,80,0.00,,,0.00,meteohub,2013-04-17 15:47:00,
2013-04-17 10:52:00,76.6,69.6,29.80,South,184,17.0,18.0,79,0.00,,,0.00,meteohub,2013-04-17 15:52:00,
2013-04-17 10:57:00,76.6,70.3,29.79,South,174,10.0,18.0,81,0.00,,,0.00,meteohub,2013-04-17 15:57:00,
2013-04-17 11:02:00,77.7,70.3,29.79,SSW,196,13.0,18.0,78,0.00,,,0.00,meteohub,2013-04-17 16:02:00,
2013-04-17 11:08:00,77.7,70.0,29.79,SSW,205,4.0,18.0,77,0.00,,,0.00,meteohub,2013-04-17 16:08:00,
2013-04-17 11:13:00,77.5,69.8,29.79,South,181,19.0,19.0,77,0.00,,,0.00,meteohub,2013-04-17 16:13:00,
2013-04-17 11:18:00,78.3,70.9,29.78,SSE,164,12.0,18.0,78,0.00,,,0.00,meteohub,2013-04-17 16:18:00,
2013-04-17 11:24:00,78.4,70.2,29.78,SSW,212,7.0,22.0,76,0.00,,,0.00,meteohub,2013-04-17 16:24:00,
2013-04-17 11:29:00,78.3,70.0,29.78,SSW,202,11.0,22.0,76,0.00,,,0.00,meteohub,2013-04-17 16:29:00,
2013-04-17 11:34:00,79.2,70.5,29.78,SE,134,11.0,22.0,75,0.00,,,0.00,meteohub,2013-04-17 16:34:00,
2013-04-17 11:39:00,79.5,70.2,29.78,South,179,18.0,22.0,73,0.00,,,0.00,meteohub,2013-04-17 16:39:00,
2013-04-17 11:45:00,79.5,70.5,29.77,SSW,193,11.0,22.0,74,0.00,,,0.00,meteohub,2013-04-17 16:45:00,
2013-04-17 11:50:00,79.7,70.3,29.77,SSW,192,13.0,22.0,73,0.00,,,0.00,meteohub,2013-04-17 16:50:00,
2013-04-17 11:55:00,79.3,70.3,29.77,SSW,211,11.0,22.0,74,0.00,,,0.00,meteohub,2013-04-17 16:55:00,
2013-04-17 12:00:00,80.1,70.2,29.77,South,184,18.0,22.0,72,0.00,,,0.00,meteohub,2013-04-17 17:00:00,
2013-04-17 12:06:00,79.5,69.6,29.77,SSE,159,10.0,25.0,72,0.00,,,0.00,meteohub,2013-04-17 17:06:00,
2013-04-17 12:11:00,80.1,70.2,29.76,SSE,163,14.0,25.0,72,0.00,,,0.00,meteohub,2013-04-17 17:11:00,
2013-04-17 12:16:00,80.1,70.2,29.76,South,188,16.0,25.0,72,0.00,,,0.00,meteohub,2013-04-17 17:16:00,
2013-04-17 12:22:00,80.2,70.9,29.76,SSW,196,17.0,25.0,73,0.00,,,0.00,meteohub,2013-04-17 17:22:00,
2013-04-17 12:27:00,81.0,70.2,29.75,SSW,209,22.0,25.0,70,0.00,,,0.00,meteohub,2013-04-17 17:27:00,
2013-04-17 12:32:00,80.4,69.8,29.75,South,191,9.0,25.0,70,0.00,,,0.00,meteohub,2013-04-17 17:32:00,
2013-04-17 12:37:00,80.8,70.5,29.75,South,184,11.0,25.0,71,0.00,,,0.00,meteohub,2013-04-17 17:37:00,
2013-04-17 12:42:00,81.0,70.2,29.75,SE,146,11.0,25.0,70,0.00,,,0.00,meteohub,2013-04-17 17:42:00,
2013-04-17 12:47:00,81.0,70.2,29.74,SSW,201,8.0,30.0,70,0.00,,,0.00,meteohub,2013-04-17 17:47:00,
2013-04-17 12:52:00,81.1,70.3,29.74,SSE,166,21.0,30.0,70,0.00,,,0.00,meteohub,2013-04-17 17:52:00,
2013-04-17 12:57:00,81.1,70.3,29.74,SSE,167,17.0,30.0,70,0.00,,,0.00,meteohub,2013-04-17 17:57:00,
2013-04-17 13:02:00,81.7,70.9,29.74,South,178,10.0,30.0,70,0.00,,,0.00,meteohub,2013-04-17 18:02:00,
2013-04-17 13:08:00,82.4,71.2,29.73,South,169,11.0,30.0,69,0.00,,,0.00,meteohub,2013-04-17 18:08:00,
2013-04-17 13:13:00,82.2,71.1,29.73,SSE,148,9.0,30.0,69,0.00,,,0.00,meteohub,2013-04-17 18:13:00,
2013-04-17 13:18:00,82.4,71.2,29.73,SSE,153,8.0,30.0,69,0.00,,,0.00,meteohub,2013-04-17 18:18:00,
2013-04-17 13:23:00,82.9,71.8,29.73,SSE,148,11.0,30.0,69,0.00,,,0.00,meteohub,2013-04-17 18:23:00,
2013-04-17 13:28:00,83.8,71.8,29.72,South,175,16.0,30.0,67,0.00,,,0.00,meteohub,2013-04-17 18:28:00,
2013-04-17 13:34:00,84.4,70.9,29.72,SSE,166,19.0,24.0,64,0.00,,,0.00,meteohub,2013-04-17 18:34:00,
2013-04-17 13:39:00,83.7,71.1,29.71,South,188,14.0,24.0,66,0.00,,,0.00,meteohub,2013-04-17 18:39:00,
2013-04-17 13:45:00,84.6,71.4,29.71,South,187,13.0,24.0,65,0.00,,,0.00,meteohub,2013-04-17 18:45:00,
2013-04-17 13:50:00,84.9,71.4,29.71,South,173,15.0,24.0,64,0.00,,,0.00,meteohub,2013-04-17 18:50:00,
2013-04-17 13:55:00,84.2,71.2,29.70,SSW,209,7.0,24.0,65,0.00,,,0.00,meteohub,2013-04-17 18:55:00,
2013-04-17 14:01:00,84.0,72.0,29.70,SSE,150,9.0,24.0,67,0.00,,,0.00,meteohub,2013-04-17 19:01:00,
2013-04-17 14:06:00,84.6,72.0,29.70,SE,146,12.0,24.0,66,0.00,,,0.00,meteohub,2013-04-17 19:06:00,
2013-04-17 14:12:00,84.7,70.7,29.70,SSW,198,10.0,24.0,63,0.00,,,0.00,meteohub,2013-04-17 19:12:00,
2013-04-17 14:17:00,83.8,70.9,29.70,South,188,12.0,24.0,65,0.00,,,0.00,meteohub,2013-04-17 19:17:00,
2013-04-17 14:22:00,84.4,71.2,29.69,SSE,154,13.0,24.0,65,0.00,,,0.00,meteohub,2013-04-17 19:22:00,
2013-04-17 14:27:00,85.3,71.8,29.69,South,176,14.0,24.0,64,0.00,,,0.00,meteohub,2013-04-17 19:27:00,
2013-04-17 14:32:00,84.7,70.3,29.69,South,171,8.0,24.0,62,0.00,,,0.00,meteohub,2013-04-17 19:32:00,
2013-04-17 14:37:00,84.2,70.2,29.69,South,182,16.0,24.0,63,0.00,,,0.00,meteohub,2013-04-17 19:37:00,
2013-04-17 14:42:00,83.3,69.8,29.69,SSE,168,12.0,24.0,64,0.00,,,0.00,meteohub,2013-04-17 19:42:00,
2013-04-17 14:47:00,83.5,70.9,29.68,SSE,156,14.0,24.0,66,0.00,,,0.00,meteohub,2013-04-17 19:47:00,
2013-04-17 14:52:00,83.3,71.2,29.68,South,171,5.0,24.0,67,0.00,,,0.00,meteohub,2013-04-17 19:52:00,
2013-04-17 14:57:00,84.4,71.2,29.68,SSE,151,8.0,25.0,65,0.00,,,0.00,meteohub,2013-04-17 19:57:00,
2013-04-17 15:02:00,84.2,71.6,29.68,South,172,12.0,25.0,66,0.00,,,0.00,meteohub,2013-04-17 20:02:00,
2013-04-17 15:07:00,84.9,72.3,29.68,South,187,11.0,25.0,66,0.00,,,0.00,meteohub,2013-04-17 20:07:00,
2013-04-17 15:13:00,84.7,71.6,29.68,South,169,10.0,25.0,65,0.00,,,0.00,meteohub,2013-04-17 20:13:00,
2013-04-17 15:18:00,84.4,71.2,29.68,South,191,10.0,25.0,65,0.00,,,0.00,meteohub,2013-04-17 20:18:00,
2013-04-17 15:23:00,84.0,70.5,29.68,South,188,13.0,25.0,64,0.00,,,0.00,meteohub,2013-04-17 20:23:00,
2013-04-17 15:28:00,83.8,70.0,29.67,SSW,193,11.0,19.0,63,0.00,,,0.00,meteohub,2013-04-17 20:28:00,
2013-04-17 15:33:00,84.0,71.1,29.67,South,169,8.0,19.0,65,0.00,,,0.00,meteohub,2013-04-17 20:33:00,
2013-04-17 15:39:00,83.8,70.3,29.67,South,171,7.0,19.0,64,0.00,,,0.00,meteohub,2013-04-17 20:39:00,
2013-04-17 15:44:00,83.1,70.5,29.66,SSW,192,6.0,19.0,66,0.00,,,0.00,meteohub,2013-04-17 20:44:00,
2013-04-17 15:49:00,82.9,70.9,29.66,South,178,5.0,19.0,67,0.00,,,0.00,meteohub,2013-04-17 20:49:00,
2013-04-17 15:54:00,82.9,70.3,29.66,SE,144,10.0,19.0,66,0.00,,,0.00,meteohub,2013-04-17 20:54:00,
2013-04-17 16:00:00,82.8,70.7,29.66,SE,140,18.0,18.0,67,0.00,,,0.00,meteohub,2013-04-17 21:00:00,
2013-04-17 16:05:00,82.2,70.2,29.66,SSE,167,7.0,18.0,67,0.00,,,0.00,meteohub,2013-04-17 21:05:00,
2013-04-17 16:10:00,82.4,70.3,29.65,South,182,10.0,18.0,67,0.00,,,0.00,meteohub,2013-04-17 21:10:00,
2013-04-17 16:15:00,82.4,70.0,29.65,South,178,12.0,18.0,66,0.00,,,0.00,meteohub,2013-04-17 21:15:00,
2013-04-17 16:21:00,82.9,70.3,29.65,SE,136,9.0,18.0,66,0.00,,,0.00,meteohub,2013-04-17 21:21:00,
2013-04-17 16:26:00,82.8,70.2,29.65,SSW,194,12.0,18.0,66,0.00,,,0.00,meteohub,2013-04-17 21:26:00,
2013-04-17 16:32:00,82.8,70.2,29.65,SSE,153,9.0,18.0,66,0.00,,,0.00,meteohub,2013-04-17 21:32:00,
2013-04-17 16:37:00,82.8,70.2,29.65,South,171,9.0,18.0,66,0.00,,,0.00,meteohub,2013-04-17 21:37:00,
2013-04-17 16:42:00,82.6,70.0,29.65,SSE,148,14.0,18.0,66,0.00,,,0.00,meteohub,2013-04-17 21:42:00,
2013-04-17 16:47:00,82.6,70.0,29.64,SSE,150,17.0,18.0,66,0.00,,,0.00,meteohub,2013-04-17 21:47:00,
2013-04-17 16:52:00,82.4,70.0,29.65,SE,133,11.0,18.0,66,0.00,,,0.00,meteohub,2013-04-17 21:52:00,
2013-04-17 16:57:00,81.7,69.6,29.64,South,180,10.0,21.0,67,0.00,,,0.00,meteohub,2013-04-17 21:57:00,
2013-04-17 17:03:00,81.9,69.8,29.64,SSW,201,11.0,21.0,67,0.00,,,0.00,meteohub,2013-04-17 22:03:00,
2013-04-17 17:08:00,82.0,70.0,29.64,South,185,10.0,21.0,67,0.00,,,0.00,meteohub,2013-04-17 22:08:00,
2013-04-17 17:13:00,82.0,69.6,29.64,ESE,105,14.0,21.0,66,0.00,,,0.00,meteohub,2013-04-17 22:13:00,
2013-04-17 17:18:00,82.2,69.8,29.63,SSE,147,11.0,21.0,66,0.00,,,0.00,meteohub,2013-04-17 22:18:00,
2013-04-17 17:24:00,82.0,69.6,29.63,SE,134,10.0,21.0,66,0.00,,,0.00,meteohub,2013-04-17 22:24:00,
2013-04-17 17:29:00,81.9,69.4,29.63,ENE,64,11.0,23.0,66,0.00,,,0.00,meteohub,2013-04-17 22:29:00,
2013-04-17 17:34:00,81.9,69.4,29.63,South,182,10.0,23.0,66,0.00,,,0.00,meteohub,2013-04-17 22:34:00,
2013-04-17 17:40:00,81.7,69.6,29.63,SE,142,11.0,23.0,67,0.00,,,0.00,meteohub,2013-04-17 22:40:00,
2013-04-17 17:45:00,81.5,69.1,29.62,SSW,196,7.0,23.0,66,0.00,,,0.00,meteohub,2013-04-17 22:45:00,
2013-04-17 17:50:00,81.3,68.9,29.62,South,169,12.0,23.0,66,0.00,,,0.00,meteohub,2013-04-17 22:50:00,
2013-04-17 17:56:00,81.7,69.3,29.62,South,180,12.0,22.0,66,0.00,,,0.00,meteohub,2013-04-17 22:56:00,
2013-04-17 18:01:00,81.7,69.3,29.62,South,176,10.0,22.0,66,0.00,,,0.00,meteohub,2013-04-17 23:01:00,
2013-04-17 18:06:00,81.5,69.4,29.62,South,169,7.0,22.0,67,0.00,,,0.00,meteohub,2013-04-17 23:06:00,
2013-04-17 18:12:00,81.5,69.4,29.62,South,178,9.0,22.0,67,0.00,,,0.00,meteohub,2013-04-17 23:12:00,
2013-04-17 18:17:00,81.3,69.3,29.62,South,176,10.0,22.0,67,0.00,,,0.00,meteohub,2013-04-17 23:17:00,
2013-04-17 18:22:00,81.3,69.3,29.62,ESE,117,10.0,22.0,67,0.00,,,0.00,meteohub,2013-04-17 23:22:00,
2013-04-17 18:27:00,81.5,69.4,29.62,South,185,7.0,22.0,67,0.00,,,0.00,meteohub,2013-04-17 23:27:00,
2013-04-17 18:32:00,81.3,69.3,29.62,SSW,195,6.0,22.0,67,0.00,,,0.00,meteohub,2013-04-17 23:32:00,
2013-04-17 18:37:00,81.3,69.8,29.62,South,176,9.0,22.0,68,0.00,,,0.00,meteohub,2013-04-17 23:37:00,
2013-04-17 18:42:00,81.1,69.6,29.62,South,169,6.0,22.0,68,0.00,,,0.00,meteohub,2013-04-17 23:42:00,
2013-04-17 18:48:00,81.1,69.6,29.62,SSE,159,5.0,22.0,68,0.00,,,0.00,meteohub,2013-04-17 23:48:00,
2013-04-17 18:53:00,81.0,69.4,29.61,South,184,18.0,22.0,68,0.00,,,0.00,meteohub,2013-04-17 23:53:00,
2013-04-17 18:58:00,81.0,69.4,29.61,SSE,157,13.0,22.0,68,0.00,,,0.00,meteohub,2013-04-17 23:58:00,
2013-04-17 19:04:00,80.8,69.3,29.62,SSE,162,11.0,21.0,68,0.00,,,0.00,meteohub,2013-04-18 00:04:00,
2013-04-17 19:09:00,80.8,69.3,29.61,South,169,18.0,21.0,68,0.00,,,0.00,meteohub,2013-04-18 00:09:00,
2013-04-17 19:14:00,80.6,69.1,29.61,South,174,12.0,21.0,68,0.00,,,0.00,meteohub,2013-04-18 00:14:00,
2013-04-17 19:20:00,80.6,68.5,29.60,SSW,195,3.0,21.0,67,0.00,,,0.00,meteohub,2013-04-18 00:20:00,
2013-04-17 19:25:00,80.4,68.9,29.60,SSE,164,15.0,21.0,68,0.00,,,0.00,meteohub,2013-04-18 00:25:00,
2013-04-17 19:30:00,80.2,68.7,29.60,South,177,10.0,21.0,68,0.00,,,0.00,meteohub,2013-04-18 00:30:00,
2013-04-17 19:36:00,80.1,68.9,29.60,South,181,9.0,21.0,69,0.00,,,0.00,meteohub,2013-04-18 00:36:00,
2013-04-17 19:42:00,80.1,68.9,29.60,SSE,154,9.0,21.0,69,0.00,,,0.00,meteohub,2013-04-18 00:42:00,
2013-04-17 19:47:00,79.9,68.7,29.60,South,188,7.0,21.0,69,0.00,,,0.00,meteohub,2013-04-18 00:47:00,
2013-04-17 19:52:00,79.9,68.7,29.60,South,177,16.0,21.0,69,0.00,,,0.00,meteohub,2013-04-18 00:52:00,
2013-04-17 19:57:00,79.9,68.7,29.60,South,179,7.0,21.0,69,0.00,,,0.00,meteohub,2013-04-18 00:57:00,
2013-04-17 20:02:00,79.9,68.7,29.60,SSW,193,10.0,21.0,69,0.00,,,0.00,meteohub,2013-04-18 01:02:00,
2013-04-17 20:07:00,79.9,68.7,29.60,SSW,198,14.0,21.0,69,0.00,,,0.00,meteohub,2013-04-18 01:07:00,
2013-04-17 20:12:00,79.9,68.7,29.60,SE,129,8.0,21.0,69,0.00,,,0.00,meteohub,2013-04-18 01:12:00,
2013-04-17 20:17:00,79.7,68.5,29.60,South,181,17.0,21.0,69,0.00,,,0.00,meteohub,2013-04-18 01:17:00,
2013-04-17 20:22:00,79.5,68.5,29.60,SSE,161,15.0,22.0,69,0.00,,,0.00,meteohub,2013-04-18 01:22:00,
2013-04-17 20:28:00,79.5,68.9,29.60,SE,144,6.0,22.0,70,0.00,,,0.00,meteohub,2013-04-18 01:28:00,
2013-04-17 20:33:00,79.3,68.7,29.60,SSE,160,12.0,22.0,70,0.00,,,0.00,meteohub,2013-04-18 01:33:00,
2013-04-17 20:38:00,79.3,69.1,29.59,SSE,168,11.0,22.0,71,0.00,,,0.00,meteohub,2013-04-18 01:38:00,
2013-04-17 20:44:00,79.2,68.9,29.59,SSW,198,10.0,23.0,71,0.00,,,0.00,meteohub,2013-04-18 01:44:00,
2013-04-17 20:49:00,79.2,68.9,29.59,SSE,167,12.0,23.0,71,0.00,,,0.00,meteohub,2013-04-18 01:49:00,
2013-04-17 20:54:00,79.0,69.3,29.59,SSE,161,11.0,23.0,72,0.00,,,0.00,meteohub,2013-04-18 01:54:00,
2013-04-17 20:59:00,78.6,69.3,29.59,South,169,18.0,23.0,73,0.00,,,0.00,meteohub,2013-04-18 01:59:00,
2013-04-17 21:05:00,78.4,69.8,29.58,South,169,13.0,21.0,75,0.00,,,0.00,meteohub,2013-04-18 02:05:00,
2013-04-17 21:10:00,78.3,70.0,29.58,SSE,153,7.0,21.0,76,0.00,,,0.00,meteohub,2013-04-18 02:10:00,
2013-04-17 21:16:00,78.1,70.3,29.58,SSW,201,8.0,21.0,77,0.00,,,0.00,meteohub,2013-04-18 02:16:00,
2013-04-17 21:21:00,77.9,70.5,29.59,SE,135,11.0,21.0,78,0.00,,,0.00,meteohub,2013-04-18 02:21:00,
2013-04-17 21:26:00,77.7,70.7,29.59,SE,124,17.0,21.0,79,0.00,,,0.00,meteohub,2013-04-18 02:26:00,
2013-04-17 21:32:00,77.4,70.7,29.59,SSE,161,7.0,21.0,80,0.00,,,0.00,meteohub,2013-04-18 02:32:00,
2013-04-17 21:37:00,77.2,70.9,29.60,South,182,7.0,26.0,81,0.00,,,0.00,meteohub,2013-04-18 02:37:00,
2013-04-17 21:42:00,76.8,70.9,29.60,South,181,6.0,26.0,82,0.00,,,0.00,meteohub,2013-04-18 02:42:00,
2013-04-17 21:47:00,76.8,70.9,29.60,South,184,9.0,26.0,82,0.00,,,0.00,meteohub,2013-04-18 02:47:00,
2013-04-17 21:53:00,76.8,71.2,29.60,South,188,16.0,26.0,83,0.00,,,0.00,meteohub,2013-04-18 02:53:00,
2013-04-17 21:58:00,76.8,71.2,29.60,South,177,11.0,26.0,83,0.00,,,0.00,meteohub,2013-04-18 02:58:00,
2013-04-17 22:03:00,76.6,71.1,29.60,South,174,17.0,23.0,83,0.00,,,0.00,meteohub,2013-04-18 03:03:00,
2013-04-17 22:09:00,76.6,71.4,29.60,South,181,21.0,23.0,84,0.00,,,0.00,meteohub,2013-04-18 03:09:00,
2013-04-17 22:14:00,76.5,71.2,29.60,South,178,14.0,23.0,84,0.00,,,0.00,meteohub,2013-04-18 03:14:00,
2013-04-17 22:19:00,76.3,71.4,29.60,South,189,15.0,23.0,85,0.00,,,0.00,meteohub,2013-04-18 03:19:00,
2013-04-17 22:25:00,76.3,71.4,29.59,South,179,17.0,23.0,85,0.00,,,0.00,meteohub,2013-04-18 03:25:00,
2013-04-17 22:30:00,76.1,71.2,29.60,SSW,198,15.0,23.0,85,0.00,,,0.00,meteohub,2013-04-18 03:30:00,
2013-04-17 22:36:00,75.9,71.1,29.59,South,175,13.0,24.0,85,0.00,,,0.00,meteohub,2013-04-18 03:36:00,
2013-04-17 22:41:00,75.9,71.4,29.60,South,189,14.0,24.0,86,0.00,,,0.00,meteohub,2013-04-18 03:41:00,
2013-04-17 22:47:00,75.9,71.4,29.60,South,187,14.0,24.0,86,0.00,,,0.00,meteohub,2013-04-18 03:47:00,
2013-04-17 22:52:00,75.7,71.2,29.60,South,174,11.0,24.0,86,0.00,,,0.00,meteohub,2013-04-18 03:52:00,
2013-04-17 22:57:00,75.9,71.4,29.59,South,180,20.0,24.0,86,0.00,,,0.00,meteohub,2013-04-18 03:57:00,
2013-04-17 23:01:00,75.9,71.4,29.59,South,178,14.0,24.0,86,0.00,,,0.00,meteohub,2013-04-18 04:01:00,
2013-04-17 23:02:00,75.9,71.4,29.59,South,175,14.0,24.0,86,0.00,,,0.00,meteohub,2013-04-18 04:02:00,
2013-04-17 23:06:00,75.9,71.4,29.59,South,184,19.0,28.0,86,0.00,,,0.00,meteohub,2013-04-18 04:06:00,
2013-04-17 23:10:00,75.9,71.4,29.59,SE,144,11.0,28.0,86,0.00,,,0.00,meteohub,2013-04-18 04:10:00,
2013-04-17 23:15:00,75.7,71.2,29.59,SSW,193,21.0,28.0,86,0.00,,,0.00,meteohub,2013-04-18 04:15:00,
2013-04-17 23:21:00,75.7,71.2,29.58,SSE,167,15.0,28.0,86,0.00,,,0.00,meteohub,2013-04-18 04:21:00,
2013-04-17 23:26:00,75.7,71.6,29.58,SSE,165,8.0,28.0,87,0.00,,,0.00,meteohub,2013-04-18 04:26:00,
2013-04-17 23:31:00,75.7,71.6,29.58,South,184,16.0,28.0,87,0.00,,,0.00,meteohub,2013-04-18 04:31:00,
2013-04-17 23:37:00,75.7,71.6,29.58,South,190,10.0,28.0,87,0.00,,,0.00,meteohub,2013-04-18 04:37:00,
2013-04-17 23:42:00,75.7,71.6,29.58,South,178,18.0,28.0,87,0.00,,,0.00,meteohub,2013-04-18 04:42:00,
2013-04-17 23:47:00,75.7,71.6,29.58,South,179,17.0,28.0,87,0.00,,,0.00,meteohub,2013-04-18 04:47:00,
2013-04-17 23:52:00,75.7,71.6,29.58,South,188,14.0,28.0,87,0.00,,,0.00,meteohub,2013-04-18 04:52:00,
2013-04-17 23:57:00,75.7,71.6,29.58,South,187,16.0,28.0,87,0.00,,,0.00,meteohub,2013-04-18 04:57:00,